ALPHASAT

Last updated on Jan. 17, 2021, 6:29 a.m. UTC

1 39215U 13038A   21016.75248321  .00000131  00000-0  00000-0 0  9992
2 39215   2.5253  18.5948 0001979 274.5083 119.0238  1.00272952 24197
UTC
Height (km)
Latitude
Longitude
Inclination
Orbital Period
UTC large
Height (km)
Speed (km/s)
/
Latitude / Longitude
Inclination (degrees)
Orbital Period (minutes)
Azimuth
Elevation
Range (km)
Doppler Factor
iOS Compass Heading
iOS Angle

Next 30 passes for location: Hong Kong

Rise time Rise Azimuth (degrees) Set time Set Azimuth (degrees) Duration Max altitude (degrees)

No matching passes for this satellites